sat.trackr.live / text

‹ back to catalog

STARLINK-34485

NORAD 64684 · 2025-139W

PAYLOAD ACTIVE UNKNOWN

§ Identity

Operator
Country
US
Launch date
2025-06-28
Launch site
AFETR
Launch vehicle
Mass (kg)
RCS (m²)

Purposes: comms

External: N2YO · Heavens-Above · Gunter

§ Orbital elements

Epoch: 2026-09-20T09:24:49.883328Z

Period
93.85 min
Inclination
53.1588°
Eccentricity
0.0001079
Mean motion
15.34400617 rev/d
Perigee alt
462.0 km
Apogee alt
463.4 km
Semi-major
6,840.8 km
B*
3.9719e-4
RAAN
298.4287°
Arg perigee
91.1961°
Mean anomaly
268.9166°
Rev number
7,015

§ Raw data

STARLINK-344851 64684U 25139W   26263.39224402  .00013067  00000+0  39719-3 0  99912 64684  53.1588 298.4287 0001079  91.1961 268.9166 15.34400617 70156

JSON: /api/v1/satellites/64684 · /tle

For live sub-satellite position, see the globe view (requires WebGL).

§ Visibility from observer

Set your observer location to see the next 7 days of passes ≥ 10°. The values pass through the URL so the page stays shareable.

No JS? Fill the form by hand. The geolocation button needs JavaScript.